Location: Mococo
(38.0255°N, 122.1161°W)
Time: 04:59:14
(UTC+00:00)

Helios 1A Rocket - Visible Passes

Search period start: 14 May 2026 00:00
Search period end: 24 May 2026 00:00
Orbit: 406 x 416 km, 98.3° (Epoch: 13 May)

Date Brightness Start Highest point End Pass type
(mag) Time Alt. Az. Time Alt. Az. Time Alt. Az.
14 May 2.6 03:56:02 10° NNE 03:59:02 40° E 04:02:00 10° S visible
15 May 3.9 04:40:57 10° N 04:43:52 35° WNW 04:46:45 10° SW visible
16 May 2.8 03:53:57 10° NNE 03:56:53 36° E 03:59:47 10° SSE visible
17 May 3.6 04:38:38 10° N 04:41:37 40° WNW 04:44:34 10° SW visible
18 May 3.0 03:51:39 10° NE 03:54:30 31° E 03:57:20 10° SSE visible
18 May 5.8 05:25:34 10° WNW 05:26:01 10° WNW 05:26:28 10° WNW visible
19 May 3.3 04:36:06 10° N 04:39:08 46° WNW 04:42:09 10° SSW visible
20 May 3.2 03:49:09 10° NE 03:51:54 27° E 03:54:37 10° SSE visible
20 May 5.5 05:22:18 10° NW 05:23:27 12° WNW 05:24:36 10° W visible
21 May 2.9 04:33:21 10° N 04:36:26 54° WNW 04:39:29 10° SSW visible
22 May 3.4 03:46:26 10° NE 03:49:03 24° E 03:51:39 10° SSE visible
22 May 5.4 05:19:06 10° NW 05:20:39 13° WNW 05:22:11 10° W visible
23 May 2.6 04:30:23 10° N 04:33:30 65° WNW 04:36:35 10° SSW visible
